Tracking 18980 objects as of 23-Feb-2018
HD Live streaming from Space Station
objects crossing your sky now

ESSA 1 (OT-3)

Track ESSA 1 (OT-3) now!
10-day predictions
ESSA 1 (OT-3) is classified as:


NORAD ID: 1982
Int'l Code: 1966-008A
Perigee: 684.1 km
Apogee: 802.1 km
Inclination: 97.8 °
Period: 99.5 minutes
Semi major axis: 7114 km
RCS: 0.7257 m2 (medium)
Launch date: February 3, 1966
Source: United States (US)
Launch site: AIR FORCE EASTERN TEST RANGE (AFETR)
aabbcc
Your satellite tracking list
Your tracking list is empty




NASA's NSSDC Master Catalog

Two Line Element Set (TLE):
1  1982U 66008A   18053.49905155 +.00000010 +00000-0 +13299-4 0  9994
2  1982 097.7979 252.0622 0082977 103.0422 258.0051 14.46850130718698
Source of the keplerian elements: AFSPC